Voltar ao catálogo

FENGYUN 1C DEB

AtivoSSO
NORAD 30366·DEBRIS·🇨🇳 China

Lançado May 10, 1999 de Taiyuan Satellite Launch Center

Loading…

Próximas Passagens (próximas 24 horas)

TLE

AtualizadoSource: Space-Track

Época: Sep 14, 2026, 06:22 UTC

1 30366U 99025ACD 26257.26527937  .00000724  00000-0  26890-3 0  9997
2 30366  98.9278 188.5128 0062815 131.8230  29.1288 14.34176761 22729

Acompanhe FENGYUN 1C DEB em tempo real com AllMySat

Download on the App Store